Беляновец, вътре ТХ Measurements

Back to Overview

Timestamp Temperature Humidity
5/4/2026 5:46:48 PM 17,2 C 67.0%
5/4/2026 5:39:45 PM 17,3 C 67.0%
5/4/2026 5:32:41 PM 17,3 C 67.0%
5/4/2026 5:25:39 PM 17,3 C 67.0%
5/4/2026 5:18:37 PM 17,2 C 67.0%
5/4/2026 5:11:36 PM 17,2 C 67.0%
5/4/2026 5:04:32 PM 17,1 C 67.0%
5/4/2026 4:57:29 PM 17,0 C 67.0%
5/4/2026 4:50:26 PM 17,0 C 67.0%
5/4/2026 4:43:21 PM 17,0 C 68.0%
5/4/2026 4:36:19 PM 17,0 C 67.0%
5/4/2026 4:29:17 PM 17,0 C 68.0%
5/4/2026 4:22:13 PM 17,0 C 67.0%
5/4/2026 4:15:12 PM 17,1 C 68.0%
5/4/2026 4:08:08 PM 17,1 C 68.0%
5/4/2026 4:01:05 PM 17,1 C 67.0%
5/4/2026 3:54:04 PM 17,0 C 68.0%
5/4/2026 3:46:59 PM 17,0 C 68.0%
5/4/2026 3:39:56 PM 17,0 C 68.0%
5/4/2026 3:32:52 PM 16,9 C 68.0%
5/4/2026 3:25:49 PM 16,8 C 68.0%
5/4/2026 3:18:47 PM 16,8 C 68.0%
5/4/2026 3:11:45 PM 16,8 C 68.0%
5/4/2026 3:04:41 PM 16,7 C 68.0%
5/4/2026 2:57:38 PM 16,6 C 68.0%
5/4/2026 2:50:35 PM 16,6 C 68.0%
5/4/2026 2:43:31 PM 16,7 C 68.0%
5/4/2026 2:36:27 PM 16,6 C 68.0%
5/4/2026 2:29:23 PM 16,5 C 68.0%
5/4/2026 2:22:27 PM 16,5 C 68.0%
5/4/2026 2:15:18 PM 16,5 C 69.0%
5/4/2026 2:08:15 PM 16,5 C 69.0%
5/4/2026 2:01:10 PM 16,5 C 69.0%
5/4/2026 1:54:07 PM 16,4 C 69.0%
5/4/2026 1:47:05 PM 16,4 C 69.0%
5/4/2026 1:40:03 PM 16,3 C 69.0%
5/4/2026 1:33:07 PM 16,3 C 69.0%
5/4/2026 1:25:56 PM 16,1 C 69.0%
5/4/2026 1:18:54 PM 16,1 C 69.0%
5/4/2026 1:11:52 PM 16,2 C 69.0%
5/4/2026 1:04:49 PM 16,1 C 70.0%
5/4/2026 12:57:46 PM 16,2 C 70.0%
5/4/2026 12:50:50 PM 16,1 C 70.0%
5/4/2026 12:43:39 PM 16,1 C 70.0%
5/4/2026 12:36:36 PM 16,1 C 70.0%
5/4/2026 12:29:33 PM 16,1 C 70.0%
5/4/2026 12:22:31 PM 16,1 C 70.0%
5/4/2026 12:15:28 PM 16,1 C 70.0%
5/4/2026 12:08:24 PM 16,1 C 70.0%
5/4/2026 12:01:22 PM 16,1 C 70.0%
5/4/2026 11:54:26 AM 16,1 C 70.0%
5/4/2026 11:47:16 AM 16,1 C 70.0%
5/4/2026 11:40:13 AM 16,0 C 70.0%
5/4/2026 11:33:08 AM 16,1 C 70.0%
5/4/2026 11:26:05 AM 16,1 C 70.0%
5/4/2026 11:19:03 AM 16,1 C 70.0%
5/4/2026 11:12:01 AM 16,1 C 70.0%
5/4/2026 11:04:58 AM 16,0 C 70.0%
5/4/2026 10:57:56 AM 16,0 C 70.0%
5/4/2026 10:50:53 AM 16,0 C 71.0%
5/4/2026 10:43:52 AM 16,0 C 71.0%
5/4/2026 10:36:48 AM 16,0 C 71.0%
5/4/2026 10:29:46 AM 16,0 C 71.0%
5/4/2026 10:22:42 AM 15,9 C 71.0%
5/4/2026 10:15:40 AM 15,9 C 71.0%
5/4/2026 10:08:37 AM 15,9 C 71.0%
5/4/2026 10:01:33 AM 15,9 C 71.0%
5/4/2026 9:54:31 AM 15,9 C 71.0%
5/4/2026 9:47:28 AM 15,9 C 71.0%
5/4/2026 9:40:26 AM 15,9 C 71.0%
5/4/2026 9:33:24 AM 15,9 C 71.0%
5/4/2026 9:26:22 AM 15,9 C 71.0%
5/4/2026 9:19:26 AM 16,0 C 71.0%
5/4/2026 9:12:15 AM 16,0 C 71.0%
5/4/2026 9:05:19 AM 16,0 C 71.0%
5/4/2026 8:58:10 AM 16,0 C 71.0%
5/4/2026 8:51:14 AM 16,0 C 71.0%
5/4/2026 8:44:05 AM 16,0 C 71.0%
5/4/2026 8:37:09 AM 16,0 C 71.0%
5/4/2026 8:29:58 AM 16,0 C 71.0%
5/4/2026 8:23:02 AM 16,0 C 71.0%
5/4/2026 8:15:51 AM 16,0 C 71.0%
5/4/2026 8:08:48 AM 16,0 C 71.0%
5/4/2026 8:01:52 AM 16,1 C 71.0%
5/4/2026 7:54:41 AM 16,1 C 71.0%
5/4/2026 7:47:38 AM 16,0 C 71.0%
5/4/2026 7:40:35 AM 16,1 C 71.0%
5/4/2026 7:33:33 AM 16,1 C 71.0%
5/4/2026 7:26:31 AM 16,1 C 71.0%
5/4/2026 7:19:29 AM 16,1 C 71.0%
5/4/2026 7:12:24 AM 16,1 C 71.0%
5/4/2026 7:05:20 AM 16,1 C 71.0%
5/4/2026 6:58:16 AM 16,1 C 72.0%
5/4/2026 6:51:13 AM 16,1 C 72.0%
5/4/2026 6:44:12 AM 16,1 C 72.0%
5/4/2026 6:37:08 AM 16,1 C 72.0%
5/4/2026 6:30:05 AM 16,1 C 72.0%
5/4/2026 6:23:03 AM 16,1 C 72.0%
5/4/2026 6:16:02 AM 16,1 C 72.0%
5/4/2026 6:08:59 AM 16,2 C 72.0%
5/4/2026 6:02:03 AM 16,2 C 72.0%
5/4/2026 5:54:53 AM 16,2 C 72.0%
5/4/2026 5:47:50 AM 16,2 C 72.0%
5/4/2026 5:40:47 AM 16,2 C 72.0%
5/4/2026 5:33:44 AM 16,3 C 72.0%
5/4/2026 5:26:41 AM 16,3 C 72.0%
5/4/2026 5:19:38 AM 16,3 C 72.0%
5/4/2026 5:12:36 AM 16,4 C 72.0%
5/4/2026 5:05:32 AM 16,3 C 72.0%
5/4/2026 4:58:36 AM 16,3 C 72.0%
5/4/2026 4:51:27 AM 16,3 C 72.0%
5/4/2026 4:44:23 AM 16,4 C 72.0%
5/4/2026 4:37:18 AM 16,4 C 72.0%
5/4/2026 4:30:16 AM 16,4 C 72.0%
5/4/2026 4:23:14 AM 16,4 C 73.0%
5/4/2026 4:16:10 AM 16,4 C 73.0%
5/4/2026 4:09:09 AM 16,4 C 73.0%
5/4/2026 4:02:05 AM 16,4 C 73.0%
5/4/2026 3:55:02 AM 16,4 C 73.0%
5/4/2026 3:47:58 AM 16,4 C 73.0%
5/4/2026 3:40:56 AM 16,4 C 73.0%
5/4/2026 3:33:53 AM 16,4 C 73.0%
5/4/2026 3:26:48 AM 16,4 C 73.0%
5/4/2026 3:19:44 AM 16,5 C 73.0%
5/4/2026 3:12:42 AM 16,5 C 73.0%
5/4/2026 3:05:40 AM 16,6 C 73.0%
5/4/2026 2:58:36 AM 16,5 C 73.0%
5/4/2026 2:51:35 AM 16,5 C 73.0%
5/4/2026 2:44:33 AM 16,5 C 73.0%
5/4/2026 2:37:29 AM 16,5 C 73.0%
5/4/2026 2:30:26 AM 16,6 C 73.0%
5/4/2026 2:23:21 AM 16,6 C 73.0%
5/4/2026 2:16:19 AM 16,6 C 73.0%
5/4/2026 2:09:15 AM 16,6 C 73.0%
5/4/2026 2:02:11 AM 16,6 C 73.0%
5/4/2026 1:55:07 AM 16,7 C 73.0%
5/4/2026 1:48:05 AM 16,7 C 73.0%
5/4/2026 1:41:01 AM 16,7 C 74.0%
5/4/2026 1:34:00 AM 16,6 C 74.0%
5/4/2026 1:26:57 AM 16,7 C 74.0%
5/4/2026 1:19:55 AM 16,7 C 74.0%
5/4/2026 1:12:52 AM 16,7 C 74.0%
5/4/2026 1:05:50 AM 16,7 C 74.0%
5/4/2026 12:58:46 AM 16,7 C 74.0%
5/4/2026 12:51:41 AM 16,7 C 74.0%
5/4/2026 12:44:40 AM 16,7 C 74.0%
5/4/2026 12:37:44 AM 16,7 C 74.0%
5/4/2026 12:30:35 AM 16,7 C 75.0%
5/4/2026 12:23:32 AM 16,7 C 75.0%
5/4/2026 12:16:29 AM 16,7 C 75.0%
5/4/2026 12:09:25 AM 16,7 C 75.0%
5/4/2026 12:02:29 AM 16,7 C 75.0%